QPF
0.01 0.00 0.00 0.00 0.00 0.00 0.00 0.00 0.02 0.02 0.01 0.01 0.01 0.01 0.01 0.00 0.00 0.00 0.00 0.00 0.01 0.01 0.02 0.02 0.03 0.03 0.03 0.03 0.02 0.03 0.04 0.04 0.04 0.04 0.04 0.04 0.04 0.05 0.06 0.06 0.04 0.05 0.04 0.02
0.01 0.00 0.00 0.00 0.00 0.00 0.00 0.00 0.01 0.01 0.00 0.00 0.00 0.01 0.01 0.00 0.00 0.00 0.00 0.00 0.01 0.01 0.01 0.02 0.02 0.02 0.02 0.02 0.02 0.02 0.03 0.03 0.04 0.05 0.05 0.05 0.05 0.06 0.07 0.07 0.06 0.06 0.04 0.02
0.01 0.00 0.00 0.00 0.00 0.00 0.00 0.01 0.03 0.01 0.00 0.00 0.00 0.01 0.01 0.00 0.00 0.00 0.00 0.00 0.00 0.01 0.02 0.02 0.02 0.02 0.02 0.01 0.01 0.01 0.02 0.03 0.05 0.06 0.06 0.07 0.07 0.06 0.06 0.06 0.05 0.04 0.03 0.02
0.00 0.01 0.01 0.01 0.00 0.00 0.00 0.01 0.01 0.00 0.00 0.00 0.01 0.02 0.02 0.01 0.00 0.00 0.00 0.00 0.01 0.02 0.02 0.02 0.02 0.02 0.02 0.02 0.02 0.03 0.04 0.05 0.06 0.07 0.08 0.08 0.08 0.07 0.07 0.06 0.05 0.05 0.04 0.03
0.00 0.01 0.02 0.01 0.01 0.00 0.00 0.00 0.02 0.01 0.00 0.00 0.01 0.01 0.02 0.01 0.00 0.00 0.00 0.00 0.01 0.02 0.02 0.02 0.03 0.03 0.02 0.02 0.02 0.03 0.04 0.05 0.06 0.08 0.08 0.07 0.05 0.05 0.05 0.04 0.03 0.03 0.03 0.03
0.00 0.01 0.03 0.03 0.01 0.01 0.00 0.01 0.01 0.00 0.00 0.00 0.01 0.01 0.03 0.02 0.01 0.01 0.01 0.01 0.01 0.02 0.03 0.03 0.03 0.03 0.03 0.03 0.04 0.04 0.05 0.04 0.04 0.04 0.04 0.03 0.03 0.03 0.03 0.03 0.04 0.03 0.03 0.03
0.00 0.01 0.02 0.01 0.00 0.00 0.01 0.01 0.01 0.00 0.00 0.00 0.01 0.01 0.02 0.04 0.04 0.03 0.01 0.01 0.01 0.02 0.04 0.05 0.05 0.05 0.05 0.05 0.05 0.04 0.04 0.03 0.03 0.03 0.02 0.02 0.02 0.02 0.02 0.02 0.02 0.02 0.03 0.03
0.01 0.02 0.03 0.02 0.01 0.01 0.01 0.01 0.02 0.01 0.00 0.01 0.01 0.01 0.01 0.02 0.04 0.05 0.02 0.01 0.01 0.02 0.04 0.06 0.07 0.06 0.05 0.05 0.04 0.03 0.02 0.02 0.02 0.02 0.02 0.01 0.02 0.01 0.01 0.02 0.02 0.02 0.02 0.03
0.02 0.02 0.01 0.02 0.02 0.02 0.01 0.01 0.01 0.01 0.01 0.01 0.00 0.00 0.01 0.01 0.02 0.02 0.01 0.01 0.02 0.02 0.04 0.06 0.06 0.05 0.03 0.02 0.02 0.01 0.02 0.02 0.03 0.02 0.02 0.02 0.02 0.02 0.02 0.02 0.02 0.02 0.02 0.02
0.02 0.01 0.01 0.01 0.01 0.01 0.00 0.01 0.01 0.02 0.04 0.01 0.00 0.00 0.01 0.00 0.01 0.01 0.01 0.01 0.01 0.02 0.04 0.05 0.04 0.03 0.02 0.02 0.01 0.02 0.03 0.03 0.03 0.03 0.02 0.02 0.02 0.02 0.02 0.02 0.02 0.03 0.03 0.03
0.03 0.04 0.03 0.01 0.01 0.01 0.01 0.01 0.02 0.03 0.03 0.02 0.01 0.00 0.00 0.00 0.01 0.01 0.01 0.01 0.01 0.02 0.03 0.04 0.03 0.03 0.02 0.02 0.02 0.03 0.03 0.03 0.03 0.03 0.02 0.02 0.03 0.02 0.02 0.03 0.03 0.03 0.02 0.02
0.08 0.07 0.05 0.03 0.01 0.01 0.01 0.01 0.01 0.02 0.02 0.03 0.02 0.01 0.01 0.01 0.01 0.02 0.01 0.01 0.02 0.03 0.03 0.04 0.04 0.03 0.02 0.02 0.03 0.03 0.03 0.02 0.02 0.02 0.02 0.02 0.02 0.02 0.01 0.01 0.01 0.02 0.02 0.02
0.11 0.07 0.03 0.02 0.02 0.03 0.03 0.01 0.01 0.01 0.01 0.02 0.03 0.03 0.02 0.01 0.02 0.02 0.02 0.03 0.04 0.04 0.05 0.07 0.06 0.03 0.02 0.02 0.02 0.02 0.02 0.02 0.02 0.01 0.01 0.01 0.01 0.02 0.02 0.01 0.01 0.01 0.02 0.02
0.06 0.03 0.01 0.01 0.01 0.01 0.01 0.01 0.01 0.02 0.01 0.02 0.03 0.04 0.02 0.01 0.01 0.01 0.02 0.04 0.05 0.05 0.06 0.06 0.04 0.02 0.01 0.01 0.02 0.02 0.02 0.02 0.03 0.02 0.02 0.01 0.01 0.02 0.02 0.01 0.01 0.01 0.01 0.01
0.03 0.02 0.01 0.01 0.01 0.01 0.01 0.01 0.01 0.01 0.01 0.01 0.03 0.04 0.02 0.01 0.01 0.02 0.03 0.03 0.05 0.06 0.04 0.02 0.01 0.01 0.01 0.01 0.02 0.02 0.01 0.02 0.03 0.02 0.02 0.01 0.01 0.01 0.01 0.01 0.01 0.01 0.01 0.01
0.03 0.02 0.02 0.01 0.01 0.01 0.01 0.00 0.01 0.01 0.01 0.01 0.01 0.02 0.02 0.01 0.01 0.02 0.03 0.04 0.04 0.03 0.01 0.01 0.01 0.01 0.01 0.02 0.02 0.02 0.02 0.02 0.02 0.02 0.02 0.01 0.01 0.01 0.01 0.01 0.00 0.00 0.01 0.01
0.04 0.04 0.04 0.03 0.02 0.01 0.01 0.01 0.00 0.01 0.01 0.01 0.01 0.01 0.01 0.01 0.02 0.03 0.04 0.03 0.02 0.01 0.01 0.01 0.01 0.01 0.02 0.02 0.01 0.01 0.01 0.02 0.02 0.02 0.01 0.01 0.01 0.01 0.01 0.01 0.01 0.01 0.01 0.01
0.04 0.04 0.04 0.04 0.02 0.02 0.01 0.01 0.01 0.01 0.01 0.01 0.01 0.01 0.01 0.01 0.02 0.03 0.03 0.02 0.01 0.01 0.01 0.01 0.01 0.00 0.01 0.01 0.01 0.01 0.01 0.02 0.01 0.01 0.01 0.01 0.01 0.01 0.01 0.01 0.01 0.01 0.01 0.02
0.03 0.02 0.03 0.03 0.02 0.02 0.01 0.01 0.01 0.01 0.01 0.02 0.02 0.02 0.02 0.03 0.04 0.03 0.02 0.02 0.01 0.01 0.01 0.01 0.01 0.01 0.01 0.01 0.01 0.01 0.01 0.02 0.02 0.02 0.01 0.02 0.02 0.03 0.02 0.01 0.01 0.01 0.01 0.01
0.03 0.02 0.02 0.02 0.02 0.01 0.01 0.02 0.02 0.01 0.01 0.02 0.03 0.03 0.04 0.04 0.03 0.02 0.01 0.01 0.01 0.01 0.01 0.01 0.01 0.01 0.01 0.01 0.01 0.01 0.01 0.01 0.02 0.01 0.01 0.01 0.01 0.01 0.01 0.01 0.01 0.01 0.01 0.01
0.01 0.01 0.02 0.03 0.03 0.01 0.01 0.02 0.01 0.01 0.02 0.03 0.03 0.03 0.03 0.03 0.03 0.02 0.01 0.01 0.01 0.01 0.01 0.01 0.01 0.01 0.01 0.01 0.01 0.01 0.01 0.01 0.01 0.01 0.02 0.02 0.02 0.01 0.01 0.01 0.01 0.01 0.01 0.02
0.01 0.01 0.01 0.02 0.03 0.02 0.02 0.02 0.01 0.01 0.01 0.01 0.02 0.01 0.02 0.02 0.02 0.01 0.01 0.01 0.01 0.01 0.00 0.00 0.00 0.01 0.01 0.01 0.01 0.01 0.01 0.01 0.01 0.01 0.01 0.01 0.01 0.01 0.01 0.01 0.01 0.01 0.02 0.02
0.02 0.02 0.01 0.02 0.02 0.03 0.03 0.03 0.03 0.02 0.01 0.01 0.01 0.02 0.02 0.02 0.01 0.01 0.00 0.00 0.00 0.00 0.00 0.00 0.01 0.00 0.00 0.00 0.00 0.00 0.01 0.01 0.01 0.01 0.01 0.01 0.01 0.01 0.01 0.01 0.01 0.02 0.02 0.03
0.03 0.04 0.04 0.03 0.02 0.02 0.02 0.03 0.03 0.02 0.02 0.02 0.02 0.02 0.03 0.02 0.01 0.01 0.00 0.00 0.00 0.00 0.00 0.00 0.00 0.00 0.00 0.00 0.00 0.00 0.01 0.01 0.01 0.01 0.01 0.01 0.01 0.01 0.02 0.02 0.02 0.02 0.02 0.03
0.03 0.06 0.08 0.05 0.04 0.03 0.03 0.03 0.02 0.01 0.02 0.02 0.02 0.01 0.01 0.01 0.01 0.01 0.01 0.01 0.01 0.01 0.01 0.00 0.00 0.00 0.00 0.00 0.00 0.01 0.01 0.02 0.02 0.02 0.02 0.02 0.02 0.02 0.02 0.02 0.02 0.02 0.02 0.02
0.03 0.08 0.11 0.07 0.05 0.04 0.03 0.02 0.02 0.01 0.01 0.02 0.02 0.02 0.01 0.01 0.01 0.01 0.02 0.01 0.01 0.01 0.01 0.01 0.01 0.01 0.00 0.00 0.01 0.01 0.01 0.02 0.03 0.03 0.02 0.02 0.02 0.02 0.02 0.02 0.02 0.02 0.02 0.02
0.02 0.05 0.09 0.08 0.05 0.04 0.03 0.01 0.01 0.01 0.01 0.02 0.04 0.04 0.03 0.02 0.02 0.02 0.02 0.02 0.02 0.02 0.01 0.01 0.01 0.01 0.01 0.01 0.01 0.01 0.01 0.02 0.03 0.03 0.03 0.03 0.02 0.02 0.03 0.03 0.03 0.03 0.03 0.03
MSLP
1010.90 1010.87 1010.82 1010.78 1010.78 1010.80 1010.86 1010.94 1011.04 1011.14 1011.23 1011.34 1011.47 1011.63 1011.84 1012.10 1012.40 1012.74 1013.08 1013.39 1013.65 1013.85 1013.97 1014.02 1014.02 1013.98 1013.94 1013.90 1013.88 1013.87 1013.88 1013.89 1013.88 1013.84 1013.78 1013.69 1013.58 1013.46 1013.35 1013.26 1013.20 1013.16 1013.13 1013.12
1011.28 1011.24 1011.14 1011.00 1010.86 1010.74 1010.66 1010.62 1010.64 1010.71 1010.82 1010.99 1011.20 1011.44 1011.72 1012.03 1012.35 1012.67 1012.96 1013.22 1013.42 1013.56 1013.65 1013.68 1013.70 1013.69 1013.69 1013.70 1013.72 1013.75 1013.78 1013.79 1013.78 1013.74 1013.66 1013.56 1013.44 1013.32 1013.21 1013.12 1013.06 1013.02 1013.01 1013.01
1011.69 1011.67 1011.54 1011.33 1011.09 1010.86 1010.66 1010.54 1010.48 1010.52 1010.64 1010.84 1011.09 1011.39 1011.72 1012.05 1012.37 1012.66 1012.90 1013.10 1013.23 1013.32 1013.38 1013.40 1013.42 1013.44 1013.48 1013.53 1013.58 1013.64 1013.68 1013.69 1013.66 1013.59 1013.48 1013.34 1013.18 1013.03 1012.89 1012.78 1012.70 1012.65 1012.63 1012.62
1012.06 1012.06 1011.92 1011.68 1011.38 1011.08 1010.80 1010.61 1010.51 1010.52 1010.63 1010.84 1011.13 1011.46 1011.82 1012.16 1012.47 1012.72 1012.92 1013.06 1013.14 1013.18 1013.20 1013.22 1013.24 1013.28 1013.34 1013.41 1013.48 1013.55 1013.58 1013.57 1013.50 1013.38 1013.21 1013.01 1012.79 1012.58 1012.38 1012.23 1012.11 1012.04 1012.00 1011.98
1012.29 1012.30 1012.16 1011.92 1011.61 1011.27 1010.97 1010.74 1010.62 1010.61 1010.72 1010.95 1011.26 1011.60 1011.97 1012.31 1012.61 1012.84 1013.00 1013.10 1013.14 1013.14 1013.13 1013.12 1013.14 1013.18 1013.25 1013.32 1013.40 1013.44 1013.45 1013.40 1013.28 1013.10 1012.86 1012.58 1012.29 1012.00 1011.75 1011.54 1011.38 1011.26 1011.20 1011.17
1012.28 1012.30 1012.19 1011.97 1011.67 1011.36 1011.06 1010.84 1010.72 1010.72 1010.85 1011.08 1011.40 1011.77 1012.14 1012.48 1012.76 1012.98 1013.11 1013.17 1013.18 1013.16 1013.12 1013.09 1013.09 1013.12 1013.17 1013.23 1013.28 1013.30 1013.26 1013.16 1012.98 1012.73 1012.42 1012.08 1011.72 1011.38 1011.06 1010.80 1010.60 1010.46 1010.37 1010.33
1012.02 1012.05 1011.97 1011.80 1011.56 1011.29 1011.04 1010.86 1010.78 1010.81 1010.96 1011.21 1011.54 1011.91 1012.28 1012.62 1012.89 1013.09 1013.21 1013.25 1013.23 1013.18 1013.12 1013.06 1013.03 1013.03 1013.05 1013.08 1013.08 1013.06 1012.97 1012.82 1012.59 1012.29 1011.93 1011.54 1011.14 1010.75 1010.40 1010.11 1009.88 1009.72 1009.63 1009.59
1011.53 1011.58 1011.56 1011.45 1011.29 1011.10 1010.94 1010.83 1010.80 1010.87 1011.05 1011.31 1011.65 1012.02 1012.38 1012.71 1012.98 1013.16 1013.26 1013.28 1013.24 1013.17 1013.07 1012.98 1012.92 1012.87 1012.84 1012.81 1012.77 1012.70 1012.57 1012.38 1012.11 1011.78 1011.40 1010.99 1010.57 1010.18 1009.82 1009.53 1009.30 1009.15 1009.07 1009.04
1010.92 1011.01 1011.04 1011.02 1010.96 1010.88 1010.81 1010.78 1010.82 1010.94 1011.14 1011.42 1011.75 1012.11 1012.46 1012.76 1013.01 1013.18 1013.26 1013.26 1013.20 1013.09 1012.96 1012.83 1012.71 1012.60 1012.51 1012.43 1012.33 1012.21 1012.04 1011.82 1011.54 1011.21 1010.84 1010.44 1010.04 1009.68 1009.35 1009.08 1008.89 1008.76 1008.70 1008.69
1010.33 1010.46 1010.57 1010.64 1010.68 1010.70 1010.74 1010.80 1010.90 1011.06 1011.28 1011.56 1011.88 1012.20 1012.52 1012.80 1013.02 1013.15 1013.21 1013.18 1013.09 1012.95 1012.78 1012.60 1012.41 1012.24 1012.08 1011.94 1011.78 1011.61 1011.41 1011.17 1010.90 1010.58 1010.24 1009.90 1009.56 1009.24 1008.96 1008.74 1008.59 1008.50 1008.46 1008.48
1009.89 1010.08 1010.26 1010.41 1010.56 1010.68 1010.80 1010.93 1011.09 1011.28 1011.51 1011.77 1012.05 1012.34 1012.61 1012.85 1013.02 1013.12 1013.14 1013.09 1012.96 1012.78 1012.56 1012.32 1012.07 1011.83 1011.60 1011.38 1011.17 1010.95 1010.72 1010.48 1010.22 1009.94 1009.65 1009.36 1009.08 1008.83 1008.62 1008.46 1008.34 1008.29 1008.28 1008.31
1009.70 1009.94 1010.18 1010.42 1010.63 1010.84 1011.02 1011.21 1011.40 1011.60 1011.82 1012.05 1012.29 1012.52 1012.74 1012.92 1013.05 1013.11 1013.10 1013.00 1012.84 1012.62 1012.35 1012.05 1011.74 1011.42 1011.12 1010.83 1010.56 1010.30 1010.04 1009.80 1009.55 1009.31 1009.07 1008.84 1008.63 1008.44 1008.28 1008.17 1008.09 1008.06 1008.06 1008.09
1009.78 1010.06 1010.34 1010.63 1010.90 1011.16 1011.39 1011.60 1011.80 1012.00 1012.18 1012.38 1012.56 1012.74 1012.90 1013.03 1013.11 1013.13 1013.08 1012.95 1012.75 1012.49 1012.17 1011.82 1011.45 1011.07 1010.70 1010.34 1010.01 1009.71 1009.44 1009.18 1008.95 1008.74 1008.54 1008.35 1008.19 1008.04 1007.93 1007.84 1007.78 1007.76 1007.76 1007.77
1010.10 1010.39 1010.70 1011.02 1011.32 1011.59 1011.84 1012.06 1012.25 1012.42 1012.58 1012.72 1012.85 1012.98 1013.08 1013.15 1013.19 1013.17 1013.08 1012.93 1012.70 1012.40 1012.05 1011.65 1011.23 1010.80 1010.37 1009.96 1009.58 1009.24 1008.94 1008.68 1008.45 1008.25 1008.08 1007.92 1007.79 1007.67 1007.57 1007.49 1007.43 1007.39 1007.37 1007.37
1010.58 1010.86 1011.17 1011.49 1011.79 1012.07 1012.31 1012.52 1012.69 1012.82 1012.94 1013.03 1013.11 1013.18 1013.23 1013.26 1013.26 1013.20 1013.09 1012.92 1012.66 1012.34 1011.97 1011.54 1011.08 1010.61 1010.14 1009.69 1009.28 1008.91 1008.59 1008.32 1008.09 1007.89 1007.73 1007.58 1007.46 1007.34 1007.24 1007.15 1007.07 1007.01 1006.96 1006.94
1011.12 1011.38 1011.67 1011.98 1012.26 1012.52 1012.75 1012.93 1013.06 1013.16 1013.23 1013.28 1013.31 1013.33 1013.34 1013.32 1013.28 1013.20 1013.07 1012.88 1012.62 1012.29 1011.90 1011.46 1010.98 1010.49 1010.00 1009.53 1009.10 1008.72 1008.38 1008.10 1007.87 1007.67 1007.50 1007.36 1007.23 1007.10 1006.98 1006.87 1006.77 1006.68 1006.61 1006.56
1011.64 1011.88 1012.15 1012.42 1012.69 1012.92 1013.12 1013.27 1013.38 1013.43 1013.46 1013.46 1013.44 1013.41 1013.38 1013.32 1013.25 1013.15 1013.00 1012.80 1012.53 1012.20 1011.82 1011.38 1010.90 1010.41 1009.92 1009.45 1009.02 1008.64 1008.30 1008.02 1007.79 1007.59 1007.42 1007.27 1007.12 1006.98 1006.85 1006.71 1006.58 1006.48 1006.38 1006.32
1012.11 1012.33 1012.57 1012.82 1013.06 1013.28 1013.44 1013.55 1013.62 1013.63 1013.61 1013.56 1013.50 1013.42 1013.34 1013.26 1013.15 1013.03 1012.87 1012.66 1012.40 1012.08 1011.70 1011.28 1010.83 1010.36 1009.89 1009.44 1009.02 1008.65 1008.33 1008.06 1007.83 1007.63 1007.46 1007.30 1007.15 1007.00 1006.85 1006.69 1006.55 1006.43 1006.33 1006.26
1012.51 1012.71 1012.94 1013.18 1013.40 1013.58 1013.71 1013.78 1013.80 1013.77 1013.70 1013.60 1013.48 1013.36 1013.24 1013.12 1012.98 1012.84 1012.67 1012.47 1012.22 1011.92 1011.57 1011.18 1010.76 1010.33 1009.89 1009.48 1009.10 1008.75 1008.45 1008.19 1007.98 1007.79 1007.62 1007.46 1007.30 1007.14 1006.98 1006.83 1006.68 1006.55 1006.45 1006.39
1012.84 1013.05 1013.28 1013.51 1013.70 1013.86 1013.95 1013.98 1013.94 1013.86 1013.74 1013.58 1013.41 1013.24 1013.08 1012.92 1012.77 1012.61 1012.44 1012.24 1012.02 1011.75 1011.44 1011.10 1010.73 1010.34 1009.96 1009.59 1009.24 1008.93 1008.66 1008.42 1008.21 1008.03 1007.87 1007.71 1007.56 1007.40 1007.24 1007.09 1006.94 1006.82 1006.72 1006.67
1013.12 1013.35 1013.58 1013.80 1013.97 1014.09 1014.14 1014.12 1014.03 1013.88 1013.70 1013.49 1013.27 1013.06 1012.86 1012.68 1012.51 1012.36 1012.20 1012.03 1011.83 1011.61 1011.36 1011.07 1010.76 1010.44 1010.10 1009.78 1009.48 1009.20 1008.95 1008.73 1008.54 1008.36 1008.20 1008.05 1007.89 1007.74 1007.59 1007.44 1007.30 1007.19 1007.10 1007.04
1013.36 1013.61 1013.84 1014.04 1014.18 1014.26 1014.25 1014.17 1014.02 1013.81 1013.57 1013.31 1013.05 1012.80 1012.58 1012.39 1012.23 1012.09 1011.96 1011.83 1011.69 1011.53 1011.34 1011.12 1010.88 1010.62 1010.35 1010.08 1009.81 1009.57 1009.34 1009.13 1008.94 1008.77 1008.61 1008.45 1008.30 1008.15 1008.00 1007.86 1007.73 1007.62 1007.53 1007.46
1013.57 1013.82 1014.04 1014.20 1014.30 1014.32 1014.25 1014.10 1013.88 1013.62 1013.32 1013.02 1012.73 1012.47 1012.25 1012.07 1011.93 1011.83 1011.75 1011.68 1011.60 1011.51 1011.40 1011.26 1011.09 1010.90 1010.68 1010.46 1010.24 1010.02 1009.81 1009.61 1009.42 1009.25 1009.08 1008.92 1008.77 1008.62 1008.47 1008.33 1008.20 1008.08 1007.98 1007.89
1013.72 1013.96 1014.14 1014.26 1014.29 1014.24 1014.10 1013.88 1013.61 1013.29 1012.96 1012.63 1012.33 1012.08 1011.87 1011.73 1011.64 1011.59 1011.57 1011.57 1011.57 1011.56 1011.53 1011.46 1011.36 1011.24 1011.08 1010.91 1010.72 1010.53 1010.34 1010.15 1009.96 1009.78 1009.61 1009.45 1009.29 1009.13 1008.98 1008.83 1008.69 1008.55 1008.42 1008.30
1013.80 1014.00 1014.14 1014.19 1014.16 1014.03 1013.82 1013.55 1013.22 1012.87 1012.52 1012.18 1011.90 1011.66 1011.50 1011.40 1011.36 1011.38 1011.43 1011.51 1011.58 1011.65 1011.69 1011.70 1011.67 1011.60 1011.51 1011.38 1011.23 1011.06 1010.89 1010.71 1010.53 1010.36 1010.18 1010.01 1009.84 1009.68 1009.51 1009.35 1009.18 1009.02 1008.85 1008.68
1013.83 1013.97 1014.04 1014.02 1013.92 1013.73 1013.47 1013.15 1012.80 1012.43 1012.08 1011.76 1011.50 1011.31 1011.19 1011.14 1011.16 1011.24 1011.35 1011.49 1011.63 1011.76 1011.86 1011.92 1011.95 1011.94 1011.89 1011.81 1011.70 1011.56 1011.42 1011.26 1011.10 1010.93 1010.76 1010.58 1010.41 1010.23 1010.05 1009.86 1009.66 1009.45 1009.23 1009.00
1013.80 1013.88 1013.88 1013.80 1013.64 1013.41 1013.12 1012.78 1012.43 1012.08 1011.75 1011.47 1011.24 1011.10 1011.02 1011.02 1011.08 1011.20 1011.35 1011.52 1011.70 1011.86 1012.00 1012.10 1012.18 1012.20 1012.20 1012.16 1012.08 1011.99 1011.88 1011.76 1011.62 1011.47 1011.31 1011.14 1010.96 1010.76 1010.55 1010.32 1010.08 1009.82 1009.53 1009.22
Thickness
5820 5827 5827 5823 5828 5834 5827 5821 5810 5809 5812 5814 5819 5819 5817 5816 5812 5810 5806 5805 5801 5797 5793 5790 5787 5784 5783 5781 5779 5776 5772 5767 5763 5761 5758 5754 5751 5748 5745 5741 5739 5735 5730 5727
5805 5820 5822 5816 5824 5828 5825 5825 5820 5815 5808 5819 5820 5819 5812 5808 5804 5801 5800 5797 5795 5791 5786 5783 5780 5778 5777 5774 5772 5770 5765 5761 5758 5755 5752 5748 5745 5742 5738 5735 5732 5729 5725 5720
5787 5806 5806 5799 5817 5820 5818 5821 5815 5803 5806 5813 5806 5805 5802 5800 5799 5798 5795 5792 5789 5785 5781 5778 5776 5774 5770 5769 5767 5763 5759 5755 5752 5749 5745 5742 5739 5735 5731 5728 5724 5721 5718 5714
5781 5782 5765 5799 5830 5826 5815 5813 5816 5811 5813 5809 5803 5805 5804 5800 5795 5793 5790 5786 5783 5780 5777 5775 5773 5769 5766 5763 5759 5754 5750 5746 5743 5740 5737 5734 5731 5728 5724 5721 5718 5714 5711 5708
5770 5765 5774 5797 5814 5816 5802 5793 5808 5805 5805 5807 5806 5796 5790 5794 5795 5791 5787 5783 5779 5777 5773 5769 5766 5762 5757 5753 5749 5745 5741 5737 5735 5733 5729 5726 5722 5719 5716 5713 5710 5708 5705 5702
5766 5754 5752 5781 5806 5817 5803 5776 5797 5799 5795 5794 5792 5775 5773 5785 5786 5784 5781 5778 5773 5770 5765 5760 5757 5754 5748 5743 5740 5736 5733 5730 5728 5725 5722 5718 5714 5712 5709 5707 5704 5702 5699 5697
5759 5754 5762 5789 5801 5802 5769 5765 5790 5792 5790 5787 5779 5775 5776 5778 5776 5773 5771 5769 5765 5760 5754 5750 5749 5744 5739 5735 5731 5729 5727 5724 5720 5717 5714 5711 5708 5705 5702 5700 5697 5695 5692 5690
5755 5746 5747 5782 5784 5771 5768 5781 5782 5780 5781 5778 5774 5774 5771 5767 5765 5761 5759 5757 5754 5748 5743 5741 5739 5734 5729 5726 5725 5723 5719 5716 5712 5709 5707 5705 5700 5697 5695 5692 5689 5687 5684 5682
5755 5753 5766 5774 5771 5775 5776 5771 5771 5771 5771 5770 5765 5762 5760 5757 5754 5751 5749 5747 5744 5739 5734 5731 5730 5726 5720 5718 5717 5714 5710 5707 5704 5702 5700 5697 5692 5689 5687 5685 5682 5679 5676 5673
5753 5759 5763 5766 5767 5768 5769 5764 5764 5764 5763 5761 5755 5752 5750 5747 5744 5741 5739 5736 5733 5729 5724 5721 5720 5717 5714 5712 5709 5705 5701 5699 5697 5694 5691 5689 5686 5683 5680 5677 5673 5670 5666 5663
5742 5748 5752 5752 5755 5757 5758 5758 5756 5755 5754 5752 5748 5744 5741 5737 5734 5732 5729 5726 5724 5720 5715 5712 5711 5708 5707 5704 5701 5696 5693 5691 5690 5687 5685 5681 5677 5674 5672 5668 5665 5661 5658 5655
5729 5736 5737 5737 5746 5750 5745 5744 5745 5744 5743 5744 5741 5736 5732 5729 5726 5723 5719 5717 5714 5711 5708 5706 5703 5701 5699 5697 5693 5688 5685 5684 5683 5681 5678 5675 5670 5667 5664 5661 5658 5655 5651 5647
5733 5736 5736 5739 5741 5741 5737 5737 5739 5738 5736 5734 5732 5729 5724 5720 5718 5715 5712 5709 5707 5704 5702 5699 5695 5693 5692 5690 5686 5681 5678 5678 5677 5675 5672 5669 5666 5661 5656 5653 5649 5646 5643 5639
5729 5727 5724 5728 5729 5731 5730 5731 5732 5731 5729 5727 5723 5719 5716 5713 5710 5707 5704 5703 5701 5698 5695 5691 5688 5686 5685 5683 5679 5676 5674 5672 5670 5667 5665 5663 5659 5656 5653 5649 5644 5642 5637 5633
5718 5719 5719 5722 5723 5724 5724 5723 5720 5718 5718 5717 5715 5711 5707 5704 5701 5699 5698 5697 5694 5690 5687 5684 5681 5679 5679 5677 5673 5670 5668 5666 5664 5662 5659 5657 5654 5651 5648 5644 5641 5637 5633 5628
5707 5711 5712 5712 5711 5713 5714 5713 5710 5709 5708 5707 5704 5702 5700 5698 5695 5692 5691 5689 5685 5682 5680 5677 5675 5674 5672 5670 5666 5663 5660 5658 5656 5655 5653 5651 5648 5644 5641 5638 5634 5631 5627 5623
5695 5695 5698 5699 5700 5702 5704 5704 5703 5702 5701 5698 5695 5694 5692 5690 5687 5684 5683 5682 5679 5677 5675 5672 5670 5669 5667 5664 5660 5658 5656 5654 5649 5648 5646 5643 5640 5637 5635 5631 5628 5625 5622 5618
5693 5693 5693 5693 5693 5694 5695 5696 5696 5695 5692 5691 5689 5687 5684 5681 5679 5677 5676 5675 5673 5671 5669 5668 5665 5663 5661 5658 5654 5653 5652 5650 5646 5643 5641 5637 5634 5632 5629 5626 5623 5619 5616 5612
5686 5687 5688 5688 5688 5688 5687 5687 5687 5686 5685 5683 5681 5678 5677 5675 5673 5672 5671 5668 5665 5663 5662 5662 5657 5656 5654 5652 5649 5648 5647 5645 5642 5638 5635 5631 5628 5626 5623 5621 5618 5615 5611 5607
5678 5679 5680 5681 5682 5681 5680 5680 5680 5678 5677 5675 5673 5671 5669 5667 5666 5665 5663 5661 5660 5659 5657 5655 5652 5650 5649 5647 5644 5644 5643 5641 5637 5634 5630 5628 5624 5622 5619 5617 5614 5610 5607 5603
5670 5672 5673 5673 5673 5674 5674 5673 5672 5671 5670 5669 5666 5664 5662 5660 5660 5658 5656 5654 5655 5653 5651 5648 5647 5644 5643 5640 5638 5639 5638 5636 5632 5629 5625 5622 5619 5617 5614 5611 5609 5605 5602 5598
5663 5665 5666 5667 5666 5665 5667 5667 5666 5665 5664 5663 5661 5659 5656 5654 5654 5654 5653 5651 5650 5646 5645 5644 5642 5638 5635 5633 5635 5634 5632 5630 5627 5624 5620 5617 5614 5611 5608 5605 5602 5599 5596 5592
5656 5657 5658 5658 5658 5658 5660 5661 5661 5660 5658 5657 5655 5653 5652 5651 5651 5648 5646 5647 5645 5641 5640 5638 5634 5631 5627 5628 5629 5627 5626 5624 5622 5620 5617 5613 5609 5605 5602 5599 5596 5593 5589 5586
5648 5649 5650 5651 5652 5651 5651 5653 5654 5654 5653 5652 5651 5651 5649 5647 5647 5647 5645 5641 5638 5635 5634 5630 5627 5624 5621 5623 5623 5622 5620 5617 5615 5613 5611 5608 5604 5600 5597 5593 5590 5587 5585 5582
5641 5642 5643 5643 5642 5644 5645 5647 5647 5647 5646 5647 5648 5647 5647 5646 5643 5641 5639 5636 5632 5629 5628 5624 5621 5619 5618 5619 5617 5615 5613 5610 5607 5605 5602 5599 5597 5594 5591 5588 5585 5582 5580 5577
5635 5636 5637 5637 5638 5639 5641 5641 5640 5640 5641 5641 5641 5641 5640 5639 5638 5636 5633 5630 5628 5624 5623 5620 5617 5615 5615 5613 5611 5609 5606 5604 5601 5598 5595 5592 5589 5586 5584 5581 5578 5576 5573 5570
5630 5631 5631 5631 5634 5636 5638 5638 5637 5636 5637 5635 5634 5633 5633 5632 5631 5630 5628 5625 5622 5620 5618 5616 5614 5611 5609 5607 5605 5602 5600 5598 5594 5591 5588 5585 5582 5579 5577 5574 5571 5568 5566 5563